Year,Month,Day,Hour,Minute,Value (Times are PST for insolation in W/m^2)
2019,09,01,00,00,0.00
2019,09,01,00,01,0.00
2019,09,01,00,02,0.00
2019,09,01,00,03,0.00
2019,09,01,00,04,0.00
2019,09,01,00,05,0.00
2019,09,01,00,06,0.00
2019,09,01,00,07,0.00
2019,09,01,00,08,0.00
2019,09,01,00,09,0.00
2019,09,01,00,10,0.00
2019,09,01,00,11,0.00
2019,09,01,00,12,0.00
2019,09,01,00,13,0.00
2019,09,01,00,14,0.00
2019,09,01,00,15,0.00
2019,09,01,00,16,0.00
2019,09,01,00,17,0.00
2019,09,01,00,18,0.00
2019,09,01,00,19,0.00
2019,09,01,00,20,0.00
2019,09,01,00,21,0.00
2019,09,01,00,22,0.00
2019,09,01,00,23,0.00
2019,09,01,00,24,0.00
2019,09,01,00,25,0.00
2019,09,01,00,26,0.00
2019,09,01,00,27,0.00
2019,09,01,00,28,0.00
2019,09,01,00,29,0.00
2019,09,01,00,30,0.00
2019,09,01,00,31,0.00
2019,09,01,00,32,0.00
2019,09,01,00,33,0.00
2019,09,01,00,34,0.00
2019,09,01,00,35,0.00
2019,09,01,00,36,0.00
2019,09,01,00,37,0.00
2019,09,01,00,38,0.00
2019,09,01,00,39,0.00
2019,09,01,00,40,0.00
2019,09,01,00,41,0.00
2019,09,01,00,42,0.00
2019,09,01,00,43,0.00
2019,09,01,00,44,0.00
2019,09,01,00,45,0.00
2019,09,01,00,46,0.00
2019,09,01,00,47,0.00
2019,09,01,00,48,0.00
2019,09,01,00,49,0.00
2019,09,01,00,50,0.00
2019,09,01,00,51,0.00
2019,09,01,00,52,0.00
2019,09,01,00,53,0.00
2019,09,01,00,54,0.00
2019,09,01,00,55,0.00
2019,09,01,00,56,0.00
2019,09,01,00,57,0.00
2019,09,01,00,58,0.00
2019,09,01,00,59,0.00
2019,09,01,01,00,0.00
2019,09,01,01,01,0.00
2019,09,01,01,02,0.00
2019,09,01,01,03,0.00
2019,09,01,01,04,0.00
2019,09,01,01,05,0.00
2019,09,01,01,06,0.00
2019,09,01,01,07,0.00
2019,09,01,01,08,0.00
2019,09,01,01,09,0.00
2019,09,01,01,10,0.00
2019,09,01,01,11,0.00
2019,09,01,01,12,0.00
2019,09,01,01,13,0.00
2019,09,01,01,14,0.00
2019,09,01,01,15,0.00
2019,09,01,01,16,0.00
2019,09,01,01,17,0.00
2019,09,01,01,18,0.00
2019,09,01,01,19,0.00
2019,09,01,01,20,0.00
2019,09,01,01,21,0.00
2019,09,01,01,22,0.00
2019,09,01,01,23,0.00
2019,09,01,01,24,0.00
2019,09,01,01,25,0.00
2019,09,01,01,26,0.00
2019,09,01,01,27,0.00
2019,09,01,01,28,0.00
2019,09,01,01,29,0.00
2019,09,01,01,30,0.00
2019,09,01,01,31,0.00
2019,09,01,01,32,0.00
2019,09,01,01,33,0.00
2019,09,01,01,34,0.00
2019,09,01,01,35,0.00
2019,09,01,01,36,0.00
2019,09,01,01,37,0.00
2019,09,01,01,38,0.00
2019,09,01,01,39,0.00
2019,09,01,01,40,0.00
2019,09,01,01,41,0.00
2019,09,01,01,42,0.00
2019,09,01,01,43,0.00
2019,09,01,01,44,0.00
2019,09,01,01,45,0.00
2019,09,01,01,46,0.00
2019,09,01,01,47,0.00
2019,09,01,01,48,0.00
2019,09,01,01,49,0.00
2019,09,01,01,50,0.00
2019,09,01,01,51,0.00
2019,09,01,01,52,0.00
2019,09,01,01,53,0.00
2019,09,01,01,54,0.00
2019,09,01,01,55,0.00
2019,09,01,01,56,0.00
2019,09,01,01,57,0.00
2019,09,01,01,58,0.00
2019,09,01,01,59,0.00
2019,09,01,02,00,0.00
2019,09,01,02,01,0.00
2019,09,01,02,02,0.00
2019,09,01,02,03,0.00
2019,09,01,02,04,0.00
2019,09,01,02,05,0.00
2019,09,01,02,06,0.00
2019,09,01,02,07,0.00
2019,09,01,02,08,0.00
2019,09,01,02,09,0.00
2019,09,01,02,10,0.00
2019,09,01,02,11,0.00
2019,09,01,02,12,0.00
2019,09,01,02,13,0.00
2019,09,01,02,14,0.00
2019,09,01,02,15,0.00
2019,09,01,02,16,0.00
2019,09,01,02,17,0.00
2019,09,01,02,18,0.00
2019,09,01,02,19,0.00
2019,09,01,02,20,0.00
2019,09,01,02,21,0.00
2019,09,01,02,22,0.00
2019,09,01,02,23,0.00
2019,09,01,02,24,0.00
2019,09,01,02,25,0.00
2019,09,01,02,26,0.00
2019,09,01,02,27,0.00
2019,09,01,02,28,0.00
2019,09,01,02,29,0.00
2019,09,01,02,30,0.00
2019,09,01,02,31,0.00
2019,09,01,02,32,0.00
2019,09,01,02,33,0.00
2019,09,01,02,34,0.00
2019,09,01,02,35,0.00
2019,09,01,02,36,0.00
2019,09,01,02,37,0.00
2019,09,01,02,38,0.00
2019,09,01,02,39,0.00
2019,09,01,02,40,0.00
2019,09,01,02,41,0.00
2019,09,01,02,42,0.00
2019,09,01,02,43,0.00
2019,09,01,02,44,0.00
2019,09,01,02,45,0.00
2019,09,01,02,46,0.00
2019,09,01,02,47,0.00
2019,09,01,02,48,0.00
2019,09,01,02,49,0.00
2019,09,01,02,50,0.00
2019,09,01,02,51,0.00
2019,09,01,02,52,0.00
2019,09,01,02,53,0.00
2019,09,01,02,54,0.00
2019,09,01,02,55,0.00
2019,09,01,02,56,0.00
2019,09,01,02,57,0.00
2019,09,01,02,58,0.00
2019,09,01,02,59,0.00
2019,09,01,03,00,0.00
2019,09,01,03,01,0.00
2019,09,01,03,02,0.00
2019,09,01,03,03,0.00
2019,09,01,03,04,0.00
2019,09,01,03,05,0.00
2019,09,01,03,06,0.00
2019,09,01,03,07,0.00
2019,09,01,03,08,0.00
2019,09,01,03,09,0.00
2019,09,01,03,10,0.00
2019,09,01,03,11,0.00
2019,09,01,03,12,0.00
2019,09,01,03,13,0.00
2019,09,01,03,14,0.00
2019,09,01,03,15,0.00
2019,09,01,03,16,0.00
2019,09,01,03,17,0.00
2019,09,01,03,18,0.00
2019,09,01,03,19,0.00
2019,09,01,03,20,0.00
2019,09,01,03,21,0.00
2019,09,01,03,22,0.00
2019,09,01,03,23,0.00
2019,09,01,03,24,0.00
2019,09,01,03,25,0.00
2019,09,01,03,26,0.00
2019,09,01,03,27,0.00
2019,09,01,03,28,0.00
2019,09,01,03,29,0.00
2019,09,01,03,30,0.00
2019,09,01,03,31,0.00
2019,09,01,03,32,0.00
2019,09,01,03,33,0.00
2019,09,01,03,34,0.00
2019,09,01,03,35,0.00
2019,09,01,03,36,0.00
2019,09,01,03,37,0.00
2019,09,01,03,38,0.00
2019,09,01,03,39,0.00
2019,09,01,03,40,0.00
2019,09,01,03,41,0.00
2019,09,01,03,42,0.00
2019,09,01,03,43,0.00
2019,09,01,03,44,0.00
2019,09,01,03,45,0.00
2019,09,01,03,46,0.00
2019,09,01,03,47,0.00
2019,09,01,03,48,0.00
2019,09,01,03,49,0.00
2019,09,01,03,50,0.00
2019,09,01,03,51,0.00
2019,09,01,03,52,0.00
2019,09,01,03,53,0.00
2019,09,01,03,54,0.00
2019,09,01,03,55,0.00
2019,09,01,03,56,0.00
2019,09,01,03,57,0.00
2019,09,01,03,58,0.00
2019,09,01,03,59,0.00
2019,09,01,04,00,0.00
2019,09,01,04,01,0.00
2019,09,01,04,02,0.00
2019,09,01,04,03,0.00
2019,09,01,04,04,0.00
2019,09,01,04,05,0.00
2019,09,01,04,06,0.00
2019,09,01,04,07,0.00
2019,09,01,04,08,0.00
2019,09,01,04,09,0.00
2019,09,01,04,10,0.00
2019,09,01,04,11,0.00
2019,09,01,04,12,0.00
2019,09,01,04,13,0.00
2019,09,01,04,14,0.00
2019,09,01,04,15,0.00
2019,09,01,04,16,0.00
2019,09,01,04,17,0.00
2019,09,01,04,18,0.00
2019,09,01,04,19,0.00
2019,09,01,04,20,0.00
2019,09,01,04,21,0.00
2019,09,01,04,22,0.00
2019,09,01,04,23,0.00
2019,09,01,04,24,0.00
2019,09,01,04,25,0.00
2019,09,01,04,26,0.00
2019,09,01,04,27,0.00
2019,09,01,04,28,0.00
2019,09,01,04,29,0.00
2019,09,01,04,30,0.00
2019,09,01,04,31,0.00
2019,09,01,04,32,0.00
2019,09,01,04,33,0.00
2019,09,01,04,34,0.00
2019,09,01,04,35,0.00
2019,09,01,04,36,0.00
2019,09,01,04,37,0.00
2019,09,01,04,38,0.00
2019,09,01,04,39,0.00
2019,09,01,04,40,0.00
2019,09,01,04,41,0.00
2019,09,01,04,42,0.00
2019,09,01,04,43,0.00
2019,09,01,04,44,0.00
2019,09,01,04,45,0.00
2019,09,01,04,46,0.00
2019,09,01,04,47,0.00
2019,09,01,04,48,0.00
2019,09,01,04,49,0.00
2019,09,01,04,50,0.00
2019,09,01,04,51,0.00
2019,09,01,04,52,0.00
2019,09,01,04,53,0.00
2019,09,01,04,54,0.00
2019,09,01,04,55,0.00
2019,09,01,04,56,0.00
2019,09,01,04,57,0.00
2019,09,01,04,58,0.00
2019,09,01,04,59,0.00
2019,09,01,05,00,0.00
2019,09,01,05,01,0.00
2019,09,01,05,02,0.00
2019,09,01,05,03,0.00
2019,09,01,05,04,0.00
2019,09,01,05,05,0.00
2019,09,01,05,06,0.00
2019,09,01,05,07,0.00
2019,09,01,05,08,0.00
2019,09,01,05,09,0.00
2019,09,01,05,10,0.00
2019,09,01,05,11,0.00
2019,09,01,05,12,0.00
2019,09,01,05,13,0.00
2019,09,01,05,14,0.00
2019,09,01,05,15,0.00
2019,09,01,05,16,0.00
2019,09,01,05,17,0.00
2019,09,01,05,18,0.00
2019,09,01,05,19,0.00
2019,09,01,05,20,0.00
2019,09,01,05,21,0.00
2019,09,01,05,22,0.00
2019,09,01,05,23,0.00
2019,09,01,05,24,0.00
2019,09,01,05,25,0.00
2019,09,01,05,26,0.00
2019,09,01,05,27,0.00
2019,09,01,05,28,0.00
2019,09,01,05,29,0.00
2019,09,01,05,30,0.00
2019,09,01,05,31,0.00
2019,09,01,05,32,0.00
2019,09,01,05,33,0.00
2019,09,01,05,34,0.00
2019,09,01,05,35,0.00
2019,09,01,05,36,0.00
2019,09,01,05,37,0.00
2019,09,01,05,38,0.00
2019,09,01,05,39,0.00
2019,09,01,05,40,0.00
2019,09,01,05,41,0.00
2019,09,01,05,42,0.00
2019,09,01,05,43,0.00
2019,09,01,05,44,0.00
2019,09,01,05,45,0.00
2019,09,01,05,46,0.00
2019,09,01,05,47,0.00
2019,09,01,05,48,0.00
2019,09,01,05,49,0.00
2019,09,01,05,50,0.00
2019,09,01,05,51,0.00
2019,09,01,05,52,0.00
2019,09,01,05,53,0.00
2019,09,01,05,54,0.00
2019,09,01,05,55,0.00
2019,09,01,05,56,0.00
2019,09,01,05,57,0.00
2019,09,01,05,58,0.00
2019,09,01,05,59,0.00
2019,09,01,06,00,0.00
2019,09,01,06,01,0.00
2019,09,01,06,02,0.00
2019,09,01,06,03,0.00
2019,09,01,06,04,0.00
2019,09,01,06,05,0.00
2019,09,01,06,06,0.00
2019,09,01,06,07,0.00
2019,09,01,06,08,0.00
2019,09,01,06,09,0.00
2019,09,01,06,10,0.00
2019,09,01,06,11,0.00
2019,09,01,06,12,0.00
2019,09,01,06,13,0.00
2019,09,01,06,14,0.00
2019,09,01,06,15,0.00
2019,09,01,06,16,0.00
2019,09,01,06,17,0.00
2019,09,01,06,18,0.00
2019,09,01,06,19,0.00
2019,09,01,06,20,0.00
2019,09,01,06,21,0.00
2019,09,01,06,22,0.00
2019,09,01,06,23,0.00
2019,09,01,06,24,0.00
2019,09,01,06,25,0.00
2019,09,01,06,26,0.00
2019,09,01,06,27,0.00
2019,09,01,06,28,0.00
2019,09,01,06,29,0.00
2019,09,01,06,30,0.00
2019,09,01,06,31,0.00
2019,09,01,06,32,0.00
2019,09,01,06,33,0.00
2019,09,01,06,34,0.00
2019,09,01,06,35,0.00
2019,09,01,06,36,0.00
2019,09,01,06,37,0.00
2019,09,01,06,38,0.00
2019,09,01,06,39,0.00
2019,09,01,06,40,0.00
2019,09,01,06,41,0.00
2019,09,01,06,42,0.00
2019,09,01,06,43,0.00
2019,09,01,06,44,0.00
2019,09,01,06,45,0.00
2019,09,01,06,46,5.00
2019,09,01,06,47,5.00
2019,09,01,06,48,5.00
2019,09,01,06,49,5.00
2019,09,01,06,50,5.00
2019,09,01,06,51,5.00
2019,09,01,06,52,5.00
2019,09,01,06,53,7.00
2019,09,01,06,54,7.00
2019,09,01,06,55,7.00
2019,09,01,06,56,7.00
2019,09,01,06,57,7.00
2019,09,01,06,58,7.00
2019,09,01,06,59,9.00
2019,09,01,07,00,9.00
2019,09,01,07,01,9.00
2019,09,01,07,02,9.00
2019,09,01,07,03,9.00
2019,09,01,07,04,9.00
2019,09,01,07,05,11.00
2019,09,01,07,06,11.00
2019,09,01,07,07,11.00
2019,09,01,07,08,12.00
2019,09,01,07,09,12.00
2019,09,01,07,10,14.00
2019,09,01,07,11,16.00
2019,09,01,07,12,18.00
2019,09,01,07,13,18.00
2019,09,01,07,14,19.00
2019,09,01,07,15,21.00
2019,09,01,07,16,21.00
2019,09,01,07,17,25.00
2019,09,01,07,18,25.00
2019,09,01,07,19,26.00
2019,09,01,07,20,26.00
2019,09,01,07,21,26.00
2019,09,01,07,22,26.00
2019,09,01,07,23,25.00
2019,09,01,07,24,25.00
2019,09,01,07,25,25.00
2019,09,01,07,26,23.00
2019,09,01,07,27,23.00
2019,09,01,07,28,23.00
2019,09,01,07,29,23.00
2019,09,01,07,30,23.00
2019,09,01,07,31,23.00
2019,09,01,07,32,23.00
2019,09,01,07,33,23.00
2019,09,01,07,34,25.00
2019,09,01,07,35,25.00
2019,09,01,07,36,25.00
2019,09,01,07,37,25.00
2019,09,01,07,38,25.00
2019,09,01,07,39,25.00
2019,09,01,07,40,26.00
2019,09,01,07,41,26.00
2019,09,01,07,42,26.00
2019,09,01,07,43,25.00
2019,09,01,07,44,25.00
2019,09,01,07,45,25.00
2019,09,01,07,46,26.00
2019,09,01,07,47,26.00
2019,09,01,07,48,26.00
2019,09,01,07,49,28.00
2019,09,01,07,50,28.00
2019,09,01,07,51,30.00
2019,09,01,07,52,30.00
2019,09,01,07,53,30.00
2019,09,01,07,54,30.00
2019,09,01,07,55,32.00
2019,09,01,07,56,32.00
2019,09,01,07,57,33.00
2019,09,01,07,58,35.00
2019,09,01,07,59,37.00
2019,09,01,08,00,37.00
2019,09,01,08,01,39.00
2019,09,01,08,02,39.00
2019,09,01,08,03,40.00
2019,09,01,08,04,40.00
2019,09,01,08,05,42.00
2019,09,01,08,06,42.00
2019,09,01,08,07,42.00
2019,09,01,08,08,44.00
2019,09,01,08,09,46.00
2019,09,01,08,10,47.00
2019,09,01,08,11,49.00
2019,09,01,08,12,49.00
2019,09,01,08,13,51.00
2019,09,01,08,14,53.00
2019,09,01,08,15,56.00
2019,09,01,08,16,58.00
2019,09,01,08,17,60.00
2019,09,01,08,18,63.00
2019,09,01,08,19,65.00
2019,09,01,08,20,69.00
2019,09,01,08,21,72.00
2019,09,01,08,22,74.00
2019,09,01,08,23,76.00
2019,09,01,08,24,77.00
2019,09,01,08,25,79.00
2019,09,01,08,26,81.00
2019,09,01,08,27,83.00
2019,09,01,08,28,84.00
2019,09,01,08,29,86.00
2019,09,01,08,30,88.00
2019,09,01,08,31,88.00
2019,09,01,08,32,88.00
2019,09,01,08,33,91.00
2019,09,01,08,34,91.00
2019,09,01,08,35,93.00
2019,09,01,08,36,95.00
2019,09,01,08,37,97.00
2019,09,01,08,38,98.00
2019,09,01,08,39,102.00
2019,09,01,08,40,104.00
2019,09,01,08,41,107.00
2019,09,01,08,42,111.00
2019,09,01,08,43,113.00
2019,09,01,08,44,120.00
2019,09,01,08,45,123.00
2019,09,01,08,46,127.00
2019,09,01,08,47,127.00
2019,09,01,08,48,127.00
2019,09,01,08,49,127.00
2019,09,01,08,50,127.00
2019,09,01,08,51,127.00
2019,09,01,08,52,125.00
2019,09,01,08,53,125.00
2019,09,01,08,54,125.00
2019,09,01,08,55,125.00
2019,09,01,08,56,125.00
2019,09,01,08,57,127.00
2019,09,01,08,58,128.00
2019,09,01,08,59,144.00
2019,09,01,09,00,148.00
2019,09,01,09,01,134.00
2019,09,01,09,02,134.00
2019,09,01,09,03,135.00
2019,09,01,09,04,135.00
2019,09,01,09,05,134.00
2019,09,01,09,06,132.00
2019,09,01,09,07,130.00
2019,09,01,09,08,128.00
2019,09,01,09,09,128.00
2019,09,01,09,10,128.00
2019,09,01,09,11,130.00
2019,09,01,09,12,134.00
2019,09,01,09,13,137.00
2019,09,01,09,14,149.00
2019,09,01,09,15,158.00
2019,09,01,09,16,169.00
2019,09,01,09,17,176.00
2019,09,01,09,18,179.00
2019,09,01,09,19,188.00
2019,09,01,09,20,211.00
2019,09,01,09,21,200.00
2019,09,01,09,22,200.00
2019,09,01,09,23,209.00
2019,09,01,09,24,214.00
2019,09,01,09,25,239.00
2019,09,01,09,26,239.00
2019,09,01,09,27,239.00
2019,09,01,09,28,234.00
2019,09,01,09,29,243.00
2019,09,01,09,30,287.00
2019,09,01,09,31,475.00
2019,09,01,09,32,568.00
2019,09,01,09,33,471.00
2019,09,01,09,34,390.00
2019,09,01,09,35,390.00
2019,09,01,09,36,276.00
2019,09,01,09,37,264.00
2019,09,01,09,38,257.00
2019,09,01,09,39,251.00
2019,09,01,09,40,253.00
2019,09,01,09,41,253.00
2019,09,01,09,42,253.00
2019,09,01,09,43,257.00
2019,09,01,09,44,257.00
2019,09,01,09,45,257.00
2019,09,01,09,46,253.00
2019,09,01,09,47,250.00
2019,09,01,09,48,244.00
2019,09,01,09,49,227.00
2019,09,01,09,50,218.00
2019,09,01,09,51,209.00
2019,09,01,09,52,204.00
2019,09,01,09,53,204.00
2019,09,01,09,54,206.00
2019,09,01,09,55,214.00
2019,09,01,09,56,220.00
2019,09,01,09,57,225.00
2019,09,01,09,58,229.00
2019,09,01,09,59,229.00
2019,09,01,10,00,220.00
2019,09,01,10,01,216.00
2019,09,01,10,02,214.00
2019,09,01,10,03,211.00
2019,09,01,10,04,207.00
2019,09,01,10,05,199.00
2019,09,01,10,06,185.00
2019,09,01,10,07,183.00
2019,09,01,10,08,181.00
2019,09,01,10,09,183.00
2019,09,01,10,10,188.00
2019,09,01,10,11,195.00
2019,09,01,10,12,218.00
2019,09,01,10,13,230.00
2019,09,01,10,14,241.00
2019,09,01,10,15,248.00
2019,09,01,10,16,250.00
2019,09,01,10,17,250.00
2019,09,01,10,18,248.00
2019,09,01,10,19,250.00
2019,09,01,10,20,248.00
2019,09,01,10,21,243.00
2019,09,01,10,22,237.00
2019,09,01,10,23,232.00
2019,09,01,10,24,230.00
2019,09,01,10,25,230.00
2019,09,01,10,26,225.00
2019,09,01,10,27,218.00
2019,09,01,10,28,207.00
2019,09,01,10,29,197.00
2019,09,01,10,30,181.00
2019,09,01,10,31,176.00
2019,09,01,10,32,171.00
2019,09,01,10,33,165.00
2019,09,01,10,34,160.00
2019,09,01,10,35,156.00
2019,09,01,10,36,155.00
2019,09,01,10,37,155.00
2019,09,01,10,38,155.00
2019,09,01,10,39,153.00
2019,09,01,10,40,149.00
2019,09,01,10,41,144.00
2019,09,01,10,42,130.00
2019,09,01,10,43,127.00
2019,09,01,10,44,125.00
2019,09,01,10,45,125.00
2019,09,01,10,46,125.00
2019,09,01,10,47,134.00
2019,09,01,10,48,137.00
2019,09,01,10,49,141.00
2019,09,01,10,50,142.00
2019,09,01,10,51,144.00
2019,09,01,10,52,144.00
2019,09,01,10,53,142.00
2019,09,01,10,54,141.00
2019,09,01,10,55,141.00
2019,09,01,10,56,139.00
2019,09,01,10,57,141.00
2019,09,01,10,58,141.00
2019,09,01,10,59,141.00
2019,09,01,11,00,141.00
2019,09,01,11,01,142.00
2019,09,01,11,02,146.00
2019,09,01,11,03,148.00
2019,09,01,11,04,151.00
2019,09,01,11,05,155.00
2019,09,01,11,06,155.00
2019,09,01,11,07,153.00
2019,09,01,11,08,151.00
2019,09,01,11,09,151.00
2019,09,01,11,10,149.00
2019,09,01,11,11,149.00
2019,09,01,11,12,149.00
2019,09,01,11,13,149.00
2019,09,01,11,14,148.00
2019,09,01,11,15,144.00
2019,09,01,11,16,141.00
2019,09,01,11,17,137.00
2019,09,01,11,18,141.00
2019,09,01,11,19,146.00
2019,09,01,11,20,151.00
2019,09,01,11,21,160.00
2019,09,01,11,22,171.00
2019,09,01,11,23,183.00
2019,09,01,11,24,206.00
2019,09,01,11,25,216.00
2019,09,01,11,26,227.00
2019,09,01,11,27,227.00
2019,09,01,11,28,251.00
2019,09,01,11,29,262.00
2019,09,01,11,30,274.00
2019,09,01,11,31,287.00
2019,09,01,11,32,302.00
2019,09,01,11,33,320.00
2019,09,01,11,34,345.00
2019,09,01,11,35,345.00
2019,09,01,11,36,334.00
2019,09,01,11,37,315.00
2019,09,01,11,38,297.00
2019,09,01,11,39,285.00
2019,09,01,11,40,281.00
2019,09,01,11,41,290.00
2019,09,01,11,42,304.00
2019,09,01,11,43,309.00
2019,09,01,11,44,315.00
2019,09,01,11,45,322.00
2019,09,01,11,46,306.00
2019,09,01,11,47,295.00
2019,09,01,11,48,285.00
2019,09,01,11,49,285.00
2019,09,01,11,50,295.00
2019,09,01,11,51,322.00
2019,09,01,11,52,371.00
2019,09,01,11,53,406.00
2019,09,01,11,54,403.00
2019,09,01,11,55,366.00
2019,09,01,11,56,318.00
2019,09,01,11,57,287.00
2019,09,01,11,58,250.00
2019,09,01,11,59,248.00
2019,09,01,12,00,255.00
2019,09,01,12,01,272.00
2019,09,01,12,02,271.00
2019,09,01,12,03,265.00
2019,09,01,12,04,264.00
2019,09,01,12,05,272.00
2019,09,01,12,06,287.00
2019,09,01,12,07,287.00
2019,09,01,12,08,316.00
2019,09,01,12,09,301.00
2019,09,01,12,10,285.00
2019,09,01,12,11,279.00
2019,09,01,12,12,288.00
2019,09,01,12,13,288.00
2019,09,01,12,14,325.00
2019,09,01,12,15,369.00
2019,09,01,12,16,369.00
2019,09,01,12,17,615.00
2019,09,01,12,18,615.00
2019,09,01,12,19,615.00
2019,09,01,12,20,1113.00
2019,09,01,12,21,1113.00
2019,09,01,12,22,1113.00
2019,09,01,12,23,278.00
2019,09,01,12,24,239.00
2019,09,01,12,25,214.00
2019,09,01,12,26,200.00
2019,09,01,12,27,223.00
2019,09,01,12,28,244.00
2019,09,01,12,29,258.00
2019,09,01,12,30,269.00
2019,09,01,12,31,274.00
2019,09,01,12,32,276.00
2019,09,01,12,33,274.00
2019,09,01,12,34,278.00
2019,09,01,12,35,283.00
2019,09,01,12,36,281.00
2019,09,01,12,37,279.00
2019,09,01,12,38,278.00
2019,09,01,12,39,287.00
2019,09,01,12,40,301.00
2019,09,01,12,41,316.00
2019,09,01,12,42,330.00
2019,09,01,12,43,338.00
2019,09,01,12,44,341.00
2019,09,01,12,45,343.00
2019,09,01,12,46,339.00
2019,09,01,12,47,336.00
2019,09,01,12,48,329.00
2019,09,01,12,49,320.00
2019,09,01,12,50,315.00
2019,09,01,12,51,323.00
2019,09,01,12,52,336.00
2019,09,01,12,53,353.00
2019,09,01,12,54,374.00
2019,09,01,12,55,394.00
2019,09,01,12,56,429.00
2019,09,01,12,57,450.00
2019,09,01,12,58,480.00
2019,09,01,12,59,541.00
2019,09,01,13,00,591.00
2019,09,01,13,01,591.00
2019,09,01,13,02,591.00
2019,09,01,13,03,591.00
2019,09,01,13,04,1158.00
2019,09,01,13,05,1144.00
2019,09,01,13,06,1120.00
2019,09,01,13,07,1065.00
2019,09,01,13,08,1065.00
2019,09,01,13,09,1065.00
2019,09,01,13,10,761.00
2019,09,01,13,11,701.00
2019,09,01,13,12,636.00
2019,09,01,13,13,566.00
2019,09,01,13,14,378.00
2019,09,01,13,15,279.00
2019,09,01,13,16,276.00
2019,09,01,13,17,327.00
2019,09,01,13,18,332.00
2019,09,01,13,19,318.00
2019,09,01,13,20,283.00
2019,09,01,13,21,258.00
2019,09,01,13,22,251.00
2019,09,01,13,23,265.00
2019,09,01,13,24,265.00
2019,09,01,13,25,260.00
2019,09,01,13,26,285.00
2019,09,01,13,27,283.00
2019,09,01,13,28,299.00
2019,09,01,13,29,332.00
2019,09,01,13,30,394.00
2019,09,01,13,31,432.00
2019,09,01,13,32,439.00
2019,09,01,13,33,415.00
2019,09,01,13,34,390.00
2019,09,01,13,35,418.00
2019,09,01,13,36,411.00
2019,09,01,13,37,392.00
2019,09,01,13,38,376.00
2019,09,01,13,39,378.00
2019,09,01,13,40,369.00
2019,09,01,13,41,399.00
2019,09,01,13,42,436.00
2019,09,01,13,43,529.00
2019,09,01,13,44,529.00
2019,09,01,13,45,529.00
2019,09,01,13,46,700.00
2019,09,01,13,47,700.00
2019,09,01,13,48,675.00
2019,09,01,13,49,919.00
2019,09,01,13,50,942.00
2019,09,01,13,51,972.00
2019,09,01,13,52,979.00
2019,09,01,13,53,970.00
2019,09,01,13,54,907.00
2019,09,01,13,55,895.00
2019,09,01,13,56,969.00
2019,09,01,13,57,1048.00
2019,09,01,13,58,1048.00
2019,09,01,13,59,615.00
2019,09,01,14,00,615.00
2019,09,01,14,01,970.00
2019,09,01,14,02,997.00
2019,09,01,14,03,1000.00
2019,09,01,14,04,954.00
2019,09,01,14,05,940.00
2019,09,01,14,06,953.00
2019,09,01,14,07,953.00
2019,09,01,14,08,953.00
2019,09,01,14,09,867.00
2019,09,01,14,10,844.00
2019,09,01,14,11,844.00
2019,09,01,14,12,895.00
2019,09,01,14,13,396.00
2019,09,01,14,14,396.00
2019,09,01,14,15,431.00
2019,09,01,14,16,455.00
2019,09,01,14,17,415.00
2019,09,01,14,18,592.00
2019,09,01,14,19,592.00
2019,09,01,14,20,840.00
2019,09,01,14,21,840.00
2019,09,01,14,22,566.00
2019,09,01,14,23,566.00
2019,09,01,14,24,269.00
2019,09,01,14,25,272.00
2019,09,01,14,26,287.00
2019,09,01,14,27,237.00
2019,09,01,14,28,227.00
2019,09,01,14,29,220.00
2019,09,01,14,30,214.00
2019,09,01,14,31,213.00
2019,09,01,14,32,214.00
2019,09,01,14,33,211.00
2019,09,01,14,34,211.00
2019,09,01,14,35,213.00
2019,09,01,14,36,209.00
2019,09,01,14,37,206.00
2019,09,01,14,38,204.00
2019,09,01,14,39,207.00
2019,09,01,14,40,207.00
2019,09,01,14,41,202.00
2019,09,01,14,42,185.00
2019,09,01,14,43,181.00
2019,09,01,14,44,176.00
2019,09,01,14,45,171.00
2019,09,01,14,46,162.00
2019,09,01,14,47,156.00
2019,09,01,14,48,148.00
2019,09,01,14,49,144.00
2019,09,01,14,50,142.00
2019,09,01,14,51,142.00
2019,09,01,14,52,141.00
2019,09,01,14,53,137.00
2019,09,01,14,54,135.00
2019,09,01,14,55,137.00
2019,09,01,14,56,139.00
2019,09,01,14,57,144.00
2019,09,01,14,58,148.00
2019,09,01,14,59,155.00
2019,09,01,15,00,156.00
2019,09,01,15,01,158.00
2019,09,01,15,02,160.00
2019,09,01,15,03,158.00
2019,09,01,15,04,155.00
2019,09,01,15,05,144.00
2019,09,01,15,06,142.00
2019,09,01,15,07,144.00
2019,09,01,15,08,149.00
2019,09,01,15,09,156.00
2019,09,01,15,10,163.00
2019,09,01,15,11,172.00
2019,09,01,15,12,174.00
2019,09,01,15,13,176.00
2019,09,01,15,14,178.00
2019,09,01,15,15,178.00
2019,09,01,15,16,178.00
2019,09,01,15,17,178.00
2019,09,01,15,18,176.00
2019,09,01,15,19,176.00
2019,09,01,15,20,174.00
2019,09,01,15,21,172.00
2019,09,01,15,22,171.00
2019,09,01,15,23,165.00
2019,09,01,15,24,162.00
2019,09,01,15,25,156.00
2019,09,01,15,26,151.00
2019,09,01,15,27,148.00
2019,09,01,15,28,144.00
2019,09,01,15,29,137.00
2019,09,01,15,30,137.00
2019,09,01,15,31,139.00
2019,09,01,15,32,141.00
2019,09,01,15,33,141.00
2019,09,01,15,34,141.00
2019,09,01,15,35,139.00
2019,09,01,15,36,139.00
2019,09,01,15,37,135.00
2019,09,01,15,38,134.00
2019,09,01,15,39,130.00
2019,09,01,15,40,123.00
2019,09,01,15,41,121.00
2019,09,01,15,42,120.00
2019,09,01,15,43,118.00
2019,09,01,15,44,116.00
2019,09,01,15,45,116.00
2019,09,01,15,46,114.00
2019,09,01,15,47,114.00
2019,09,01,15,48,113.00
2019,09,01,15,49,113.00
2019,09,01,15,50,113.00
2019,09,01,15,51,113.00
2019,09,01,15,52,113.00
2019,09,01,15,53,113.00
2019,09,01,15,54,113.00
2019,09,01,15,55,113.00
2019,09,01,15,56,114.00
2019,09,01,15,57,116.00
2019,09,01,15,58,120.00
2019,09,01,15,59,121.00
2019,09,01,16,00,125.00
2019,09,01,16,01,128.00
2019,09,01,16,02,130.00
2019,09,01,16,03,132.00
2019,09,01,16,04,135.00
2019,09,01,16,05,135.00
2019,09,01,16,06,137.00
2019,09,01,16,07,139.00
2019,09,01,16,08,141.00
2019,09,01,16,09,142.00
2019,09,01,16,10,144.00
2019,09,01,16,11,144.00
2019,09,01,16,12,146.00
2019,09,01,16,13,146.00
2019,09,01,16,14,146.00
2019,09,01,16,15,146.00
2019,09,01,16,16,144.00
2019,09,01,16,17,142.00
2019,09,01,16,18,139.00
2019,09,01,16,19,137.00
2019,09,01,16,20,137.00
2019,09,01,16,21,132.00
2019,09,01,16,22,132.00
2019,09,01,16,23,134.00
2019,09,01,16,24,134.00
2019,09,01,16,25,135.00
2019,09,01,16,26,139.00
2019,09,01,16,27,142.00
2019,09,01,16,28,142.00
2019,09,01,16,29,144.00
2019,09,01,16,30,146.00
2019,09,01,16,31,146.00
2019,09,01,16,32,148.00
2019,09,01,16,33,153.00
2019,09,01,16,34,156.00
2019,09,01,16,35,158.00
2019,09,01,16,36,162.00
2019,09,01,16,37,162.00
2019,09,01,16,38,160.00
2019,09,01,16,39,156.00
2019,09,01,16,40,156.00
2019,09,01,16,41,156.00
2019,09,01,16,42,156.00
2019,09,01,16,43,156.00
2019,09,01,16,44,155.00
2019,09,01,16,45,149.00
2019,09,01,16,46,146.00
2019,09,01,16,47,142.00
2019,09,01,16,48,139.00
2019,09,01,16,49,137.00
2019,09,01,16,50,137.00
2019,09,01,16,51,135.00
2019,09,01,16,52,137.00
2019,09,01,16,53,139.00
2019,09,01,16,54,141.00
2019,09,01,16,55,142.00
2019,09,01,16,56,149.00
2019,09,01,16,57,160.00
2019,09,01,16,58,179.00
2019,09,01,16,59,183.00
2019,09,01,17,00,186.00
2019,09,01,17,01,195.00
2019,09,01,17,02,207.00
2019,09,01,17,03,211.00
2019,09,01,17,04,211.00
2019,09,01,17,05,206.00
2019,09,01,17,06,199.00
2019,09,01,17,07,188.00
2019,09,01,17,08,167.00
2019,09,01,17,09,158.00
2019,09,01,17,10,149.00
2019,09,01,17,11,142.00
2019,09,01,17,12,137.00
2019,09,01,17,13,134.00
2019,09,01,17,14,128.00